Weather History for KNBG - October, 2011

Change the Weather History Date:

Wednesday, October 19, 2011

  Actual Average Record
Temperature  
Mean Temperature 54 °F -  
Max Temperature 66 °F 77 °F 87 °F (2004)
Min Temperature 45 °F 59 °F 43 °F (1997)
Degree Days  
Heating Degree Days 10    
Growing Degree Days 4 (Base 50)    
Moisture  
Dew Point 40 °F    
Average Humidity 58    
Maximum Humidity 90    
Minimum Humidity 30    
Precipitation  
Precipitation 0.00 in - - ()
Sea Level Pressure  
Sea Level Pressure 29.90 in    
Wind  
Wind Speed 9 mph (WNW)    
Max Wind Speed 16 mph    
Max Gust Speed 30 mph    
Visibility 10 miles    
Events      
Averages and records for this station are not official NWS values.
T = Trace of Precipitation, MM = Missing Value Source: NWS Daily Summary

Daily Weather History Graph

Daily Weather History Graph

Search for Another Location

Airport or City:

Trip Planner

Search our weather history database for the weather conditions in past years. The results will help you decide how hot, cold, wet, or windy it might be!

Date:

Astronomy

Oct. 19, 2011 Rise Set
Actual Time 7:04 AM CDT 6:25 PM CDT
Civil Twilight 6:40 AM CDT 6:49 PM CDT
Nautical Twilight 6:12 AM CDT 7:17 PM CDT
Astronomical Twilight 5:44 AM CDT 7:45 PM CDT
Moon No Moon Rise 1:23 PM CDT (10/19)
Length of Visible Light 12h 09m
Length of Day
11h 21m
Waning Gibbous, 54% of the Moon is Illuminated
Oct 19
Waning Gibbous
Oct 19
Last Quarter
Oct 26
New
Nov 2
First Quarter
Nov 10
Full

Hourly Weather History & Observations

Time (CDT) Temp. Windchill Dew Point Humidity Pressure Visibility Wind Dir Wind Speed Gust Speed Precip Events Conditions
12:44 AM 55.4 °F - 42.8 °F 63% 29.82 in 10.0 mi NNW 12.7 mph 24.2 mph N/A   Scattered Clouds
12:55 AM 55.9 °F - 43.0 °F 62% 29.83 in 10.0 mi NNW 13.8 mph 29.9 mph N/A   Partly Cloudy
1:55 AM 55.9 °F - 39.9 °F 55% 29.83 in 10.0 mi North 16.1 mph 25.3 mph N/A   Clear
2:55 AM 55.0 °F - 39.9 °F 57% 29.83 in 10.0 mi NNW 10.4 mph 20.7 mph N/A   Clear
3:55 AM 55.0 °F - 41.0 °F 59% 29.84 in 10.0 mi NNW 8.1 mph 16.1 mph N/A   Clear
4:55 AM 54.0 °F - 42.1 °F 64% 29.86 in 10.0 mi Variable 4.6 mph 17.3 mph N/A   Clear
5:55 AM 54.0 °F - 43.0 °F 66% 29.87 in 10.0 mi NW 5.8 mph - N/A   Clear
6:16 AM 51.8 °F - 42.8 °F 71% 29.88 in 10.0 mi WSW 5.8 mph - N/A   Partly Cloudy
6:55 AM 50.0 °F - 42.1 °F 74% 29.89 in 10.0 mi West 5.8 mph - N/A   Partly Cloudy
7:55 AM 51.1 °F - 44.1 °F 77% 29.90 in 10.0 mi WSW 6.9 mph - N/A   Scattered Clouds
8:55 AM 55.0 °F - 46.0 °F 72% 29.91 in 10.0 mi WSW 5.8 mph - N/A   Scattered Clouds
9:55 AM 59.0 °F - 45.0 °F 60% 29.90 in 10.0 mi West 9.2 mph - N/A   Partly Cloudy
10:55 AM 62.1 °F - 43.0 °F 50% 29.88 in 10.0 mi West 8.1 mph - N/A   Scattered Clouds
11:55 AM 64.0 °F - 39.0 °F 40% 29.88 in 10.0 mi NW 11.5 mph 20.7 mph N/A   Scattered Clouds
12:55 PM 64.4 °F - 39.2 °F 40% 29.86 in 10.0 mi WNW 11.5 mph 23.0 mph N/A   Scattered Clouds
1:55 PM 64.9 °F - 36.0 °F 34% 29.85 in 10.0 mi Variable 6.9 mph 18.4 mph N/A   Partly Cloudy
2:55 PM 64.9 °F - 34.0 °F 32% 29.84 in 10.0 mi NW 15.0 mph 23.0 mph N/A   Partly Cloudy
3:55 PM 63.0 °F - 32.0 °F 31% 29.87 in 10.0 mi NW 15.0 mph 24.2 mph N/A   Scattered Clouds
4:55 PM 63.0 °F - 30.9 °F 30% 29.90 in 10.0 mi NNW 10.4 mph 25.3 mph N/A   Scattered Clouds
5:55 PM 61.0 °F - 32.0 °F 34% 29.92 in 10.0 mi NNW 9.2 mph 16.1 mph N/A   Scattered Clouds
6:55 PM 59.0 °F - 33.1 °F 38% 29.95 in 10.0 mi Variable 4.6 mph - N/A   Partly Cloudy
7:55 PM 52.0 °F - 39.0 °F 61% 29.99 in 10.0 mi Calm Calm - N/A   Clear
8:55 PM 48.0 °F - 41.0 °F 77% 30.01 in 10.0 mi West 3.5 mph - N/A   Clear
9:55 PM 46.0 °F 44.8 °F 41.0 °F 83% 30.03 in 10.0 mi WSW 3.5 mph - N/A   Clear
10:55 PM 45.0 °F 43.5 °F 42.1 °F 90% 30.04 in 10.0 mi SW 3.5 mph - N/A   Clear
11:55 PM 46.0 °F - 42.1 °F 86% 30.04 in 10.0 mi Calm Calm - N/A   Clear